Flag for Jamaica Weather past 2 weeks in Montego Bay, Jamaica

Now
79 °F

Passing clouds.


Feels Like: 82 °F
Forecast: 77 / 90 °F
Wind: 2 mph from North

Location: Montego Bay / Sangster

Current Time: Jul 24, 2014 at 3:48:20 AM

Latest Report: Jul 24, 2014 at 3:00 AM


Visibility: N/A

Pressure: 29.95 "Hg

Humidity: 84%

Dew point: 73 °F

Location of Montego BayLocation

Historic Weather in Montego Bay — Graph

°F

Montego Bay temperature yesterday

Maximum temperature yesterday: 91 °F (at 1:00 PM)
Minimum temperature yesterday: 77 °F (at 5:00 AM)
Average temperature yesterday: 85 °F

Past Weeks' High & Low Weather Summary

 TemperatureHumidityPressure
High93 °F (Jul 9, 1:00 PM)94% (Jul 15, 3:00 AM)30.04 "Hg (Jul 15, 3:00 AM)
Low77 °F (Jul 23, 5:00 AM)55% (Jul 21, 1:00 PM)29.89 "Hg (Jul 20, 4:00 PM)
Average84 °F73%29.98 "Hg
* Reported Jul 9 3:00 AM — Jul 24 3:00 AM, Montego Bay, Weather by CustomWeather, © 2014

Note: Actual official high and low records may vary slightly from our data, if they occured in-between our weather recording intervals... More about our weather records

Advertising

Montego Bay weather history for previous 24 hours

 ConditionsComfort  
Time TempWeatherWind HumidityBarometerVisibility
3:00 AM
Jul 24
79 °FPassing clouds.2 mph84%29.95 "HgN/A
2:00 AM81 °FPassing clouds.6 mph79%29.95 "HgN/A
1:00 AM81 °FPassing clouds.8 mph84%29.98 "HgN/A
12:00 AM81 °FPassing clouds.5 mph84%30.01 "HgN/A
11:00 PM
Jul 23
82 °FPassing clouds.2 mph79%30.01 "HgN/A
10:00 PM82 °FPassing clouds.3 mph79%29.98 "HgN/A
9:00 PM82 °FPassing clouds.3 mph79%29.98 "HgN/A
8:00 PM82 °FPassing clouds.7 mph84%29.98 "HgN/A
7:00 PM84 °FPassing clouds.12 mph79%29.95 "HgN/A
6:00 PM86 °FScattered clouds.5 mph75%29.92 "HgN/A
5:00 PM88 °FScattered clouds.7 mph75%29.92 "HgN/A
4:00 PM91 °FScattered clouds.3 mph67%29.92 "HgN/A
3:00 PM88 °FScattered clouds.15 mph70%29.92 "HgN/A
2:00 PM91 °FScattered clouds.17 mph63%29.92 "HgN/A
1:00 PM91 °FScattered clouds.15 mph63%29.95 "HgN/A
12:00 PM90 °FPassing clouds.17 mph67%29.98 "HgN/A
11:00 AM90 °FPassing clouds.15 mph67%29.98 "HgN/A
10:00 AM88 °FPassing clouds.13 mph70%29.98 "HgN/A
9:00 AM86 °FPassing clouds.10 mph70%30.01 "HgN/A
8:00 AM86 °FPassing clouds.5 mph66%30.01 "HgN/A
5:00 AM77 °FPassing clouds.3 mph83%29.98 "HgN/A
4:00 AM79 °FPassing clouds.2 mph79%29.95 "HgN/A
3:00 AM79 °FPassing clouds.2 mph79%29.95 "HgN/A
Weather by CustomWeather, © 2014

See weather overviewHow to use our weather pages